星链-5500 (STARLINK-5500 )

导读

STARLINK-5500是美国SpaceX公司星链星座的成员,于2023年2月17日发射入轨。星链项目计划在近地轨道部署数万颗卫星,构建全球卫星互联网系统,为传统网络覆盖不足地区提供高速低延迟宽带服务。STARLINK-5500配备氪离子推进系统与自主碰撞规避技术,参与完善全球星链网络的通信覆盖能力。

基本信息
目录编号:
55634
目录名称:
STARLINK-5500
国际标识:
2023-021G
轨道中心:
EARTH
卫星名称:
星链-5500
卫星全名:
星链-5500 (STARLINK-5500 )
卫星状态:
在轨 (已飞行1296 天)
发射日期:
2023-02-17 UTC
国别 :
美国 (US)
星等 :
--
轨道信息
数据来源 国际轨道数据
星历时间: 2026-09-04T09:02:44+0800
1天前
查看轨道信息
半长轴: 6950.196km
偏心率: 0.0002735
轨道倾角: 69.999°
近地点辐角 265.656°
升交点赤经 114.774°
平近点角 94.429°
近地点: 570.158km
远地点: 573.96km
周期: 96.107分钟
每日圈数: 14.983291
详细信息
固有亮度:
5
最大亮度:
2.5
卫星平台:
Starlink v1.5
覆盖范围:
全球
运营商:
太空探索技术公司
运营商所在国:
美国
制造商(研发单位):
太空探索技术公司
制造商所在国:
美国
使用方式:
暂无
卫星简介
星链(Starlink)计划是由太空探索技术公司(SpaceX)提出的一个巨型低轨卫星互联网星座项目,计划在2019年至2024年间在太空搭建由约1.2万颗卫星组成的“星链”网络,其中1584颗将部署在地球上空550千米处的近地轨道,并从2020年开始工作。该卫星仍在工作。
2D轨道图
3D轨道图
轨道高度分析图
轨道倾角分析图
轨道综合分析图
查看轨道综合分析图
交会数据列表
事件ID 空间交会对象 最接近时刻(TCA) 交会距离 交会风险概率(CRP) 交会风险指数(CRI) 操作
CDM_260906-064004-435005-563423
2026-09-06T
06:40:54+0000
1.599 km
极远距离
4.459879E-6 低风险 0.48
CDM_260906-032600-374105-563422
2026-09-06T
03:26:38+0000
1.970 km
极远距离
2.50358E-6 低风险 0.43
CDM_260905-000004-462105-563424
2026-09-05T
00:00:18+0000
2.747 km
极远距离
1.506913E-6 低风险 0.39